WHS25 EDWI-EDWI

Flight info

Callsign WHS25
Flight time 1h 16m
Altitude 4000
Route 534827N0074972E 535213N0074743E 535829N0073876E 535213N0074743E 534827N0074972E
Aircraft A139/L-SFG/C

Departure

Time 2026-04-12 15:42
Airport JadeWeser Airport (EDWI)

Arrival

Time 2026-04-12 16:58
Airport JadeWeser Airport (EDWI)
Time Latitude Longitude Altitude Speed Heading
2026-04-12 15:29 53.50279 8.04974 7 ft 0 kts
2026-04-12 15:40 53.50288 8.04983 8 ft 2 kts 41°
2026-04-12 15:40 53.50301 8.04991 8 ft 3 kts 14°
2026-04-12 15:40 53.50347 8.05000 8 ft 5 kts
2026-04-12 15:41 53.50391 8.05006 8 ft 6 kts
2026-04-12 15:41 53.50440 8.05013 8 ft 7 kts
2026-04-12 15:41 53.50480 8.05017 8 ft 5 kts
2026-04-12 15:41 53.50489 8.05044 8 ft 5 kts 158°
2026-04-12 15:42 53.50339 8.05157 83 ft 52 kts 154°
2026-04-12 15:42 53.49915 8.05504 369 ft 79 kts 152°
2026-04-12 15:42 53.49466 8.06080 730 ft 92 kts 114°
2026-04-12 15:43 53.50251 8.07717 1653 ft 58 kts 48°
2026-04-12 15:43 53.50401 8.08247 1918 ft 68 kts 54°
2026-04-12 15:43 53.50737 8.09011 2006 ft 90 kts 38°
2026-04-12 15:43 53.51292 8.09726 1965 ft 109 kts 34°
2026-04-12 15:44 53.51903 8.10653 1870 ft 133 kts 48°
2026-04-12 15:44 53.52121 8.11343 1938 ft 136 kts 66°
2026-04-12 15:44 53.52546 8.12758 2020 ft 136 kts 63°
2026-04-12 15:44 53.52987 8.14159 2192 ft 137 kts 63°
2026-04-12 15:45 53.53433 8.15576 2390 ft 138 kts 63°
2026-04-12 15:45 53.53883 8.16996 2588 ft 138 kts 63°
2026-04-12 15:45 53.54337 8.18428 2791 ft 139 kts 63°
2026-04-12 15:45 53.54787 8.19848 2996 ft 139 kts 63°
2026-04-12 15:46 53.55236 8.21302 3084 ft 138 kts 62°
2026-04-12 15:46 53.56907 8.22781 2981 ft 172 kts 355°
2026-04-12 15:46 53.58003 8.22050 3093 ft 167 kts 332°
2026-04-12 15:47 53.59067 8.21232 3015 ft 169 kts 332°
2026-04-12 15:47 53.60136 8.20398 2994 ft 170 kts 332°
2026-04-12 15:47 53.61206 8.19566 3009 ft 171 kts 332°
2026-04-12 15:47 53.62285 8.18725 3024 ft 171 kts 332°
2026-04-12 15:48 53.63363 8.17888 3038 ft 170 kts 332°
2026-04-12 15:48 53.64446 8.17049 3040 ft 171 kts 332°
2026-04-12 15:48 53.65523 8.16217 3037 ft 171 kts 332°
2026-04-12 15:48 53.66606 8.15382 3043 ft 171 kts 332°
2026-04-12 15:49 53.67689 8.14543 3041 ft 171 kts 332°
2026-04-12 15:49 53.68786 8.13698 3036 ft 172 kts 332°
2026-04-12 15:49 53.69743 8.12543 3019 ft 169 kts 302°
2026-04-12 15:49 53.70029 8.10697 3043 ft 163 kts 266°
2026-04-12 15:50 53.70108 8.08803 3039 ft 163 kts 271°
2026-04-12 15:50 53.70265 8.06904 3026 ft 165 kts 274°
2026-04-12 15:50 53.70468 8.04993 3031 ft 165 kts 275°
2026-04-12 15:50 53.70684 8.03104 3033 ft 165 kts 276°
2026-04-12 15:51 53.70909 8.01189 3032 ft 164 kts 276°
2026-04-12 15:51 53.71136 7.99295 3032 ft 164 kts 277°
2026-04-12 15:51 53.71364 7.97409 3027 ft 164 kts 277°
2026-04-12 15:51 53.71591 7.95525 3024 ft 164 kts 277°
2026-04-12 15:52 53.71818 7.93626 3021 ft 164 kts 277°
2026-04-12 15:52 53.72047 7.91742 3027 ft 164 kts 277°
2026-04-12 15:52 53.72271 7.89878 3030 ft 164 kts 276°
2026-04-12 15:52 53.72498 7.87987 3027 ft 164 kts 276°
2026-04-12 15:53 53.72723 7.86092 3023 ft 164 kts 277°
2026-04-12 15:53 53.72952 7.84191 3020 ft 165 kts 276°
2026-04-12 15:53 53.73178 7.82280 3032 ft 165 kts 276°
2026-04-12 15:53 53.73403 7.80397 3039 ft 164 kts 276°
2026-04-12 15:54 53.73628 7.78513 3032 ft 164 kts 276°
2026-04-12 15:54 53.73850 7.76637 3025 ft 164 kts 276°
2026-04-12 15:54 53.74075 7.74739 3021 ft 164 kts 276°
2026-04-12 15:54 53.74298 7.72843 3023 ft 164 kts 276°
2026-04-12 15:55 53.74521 7.70960 3027 ft 164 kts 276°
2026-04-12 15:55 53.74743 7.69080 3024 ft 164 kts 276°
2026-04-12 15:55 53.74968 7.67183 3029 ft 164 kts 276°
2026-04-12 15:55 53.75188 7.65308 3025 ft 164 kts 276°
2026-04-12 15:56 53.75409 7.63434 3028 ft 164 kts 277°
2026-04-12 15:56 53.75632 7.61539 3029 ft 164 kts 277°
2026-04-12 15:56 53.75856 7.59641 3034 ft 164 kts 276°
2026-04-12 15:56 53.76075 7.57754 3024 ft 164 kts 276°
2026-04-12 15:57 53.76298 7.55860 3024 ft 165 kts 276°
2026-04-12 15:57 53.76517 7.53977 3027 ft 165 kts 276°
2026-04-12 15:57 53.76741 7.52052 3030 ft 165 kts 276°
2026-04-12 15:57 53.76960 7.50170 3031 ft 164 kts 276°
2026-04-12 15:58 53.77182 7.48259 3033 ft 164 kts 276°
2026-04-12 15:58 53.77400 7.46374 3028 ft 164 kts 276°
2026-04-12 15:58 53.77620 7.44489 3034 ft 164 kts 276°
2026-04-12 15:58 53.77839 7.42598 3033 ft 163 kts 276°
2026-04-12 15:59 53.78059 7.40689 3025 ft 164 kts 276°
2026-04-12 15:59 53.78277 7.38804 3028 ft 163 kts 276°
2026-04-12 15:59 53.78493 7.36934 3030 ft 163 kts 276°
2026-04-12 15:59 53.78709 7.35047 3024 ft 164 kts 276°
2026-04-12 16:00 53.78929 7.33133 3029 ft 163 kts 275°
2026-04-12 16:00 53.79144 7.31255 3034 ft 163 kts 275°
2026-04-12 16:00 53.79360 7.29372 3030 ft 164 kts 275°
2026-04-12 16:00 53.79577 7.27485 3033 ft 163 kts 275°
2026-04-12 16:01 53.79791 7.25600 3032 ft 163 kts 275°
2026-04-12 16:01 53.80007 7.23718 3031 ft 163 kts 275°
2026-04-12 16:01 53.80220 7.21834 3026 ft 163 kts 275°
2026-04-12 16:01 53.80432 7.19952 3021 ft 164 kts 275°
2026-04-12 16:02 53.80649 7.18052 3025 ft 164 kts 275°
2026-04-12 16:02 53.80862 7.16164 3025 ft 164 kts 275°
2026-04-12 16:02 53.81079 7.14262 3030 ft 164 kts 275°
2026-04-12 16:02 53.81293 7.12367 3033 ft 163 kts 275°
2026-04-12 16:03 53.81505 7.10493 3034 ft 163 kts 275°
2026-04-12 16:03 53.81718 7.08614 3039 ft 163 kts 275°
2026-04-12 16:03 53.81929 7.06727 3032 ft 163 kts 275°
2026-04-12 16:03 53.82140 7.04849 3024 ft 163 kts 275°
2026-04-12 16:04 53.82353 7.02944 3024 ft 163 kts 275°
2026-04-12 16:04 53.82563 7.01069 3025 ft 163 kts 275°
2026-04-12 16:04 53.82774 6.99186 3024 ft 163 kts 275°
2026-04-12 16:04 53.82985 6.97305 3022 ft 163 kts 275°
2026-04-12 16:05 53.83197 6.95416 3025 ft 163 kts 275°
2026-04-12 16:05 53.83405 6.93545 3025 ft 164 kts 274°
2026-04-12 16:05 53.83616 6.91637 3031 ft 164 kts 275°
2026-04-12 16:05 53.83825 6.89747 3029 ft 163 kts 275°
2026-04-12 16:06 53.84034 6.87856 3031 ft 163 kts 275°
2026-04-12 16:06 53.84244 6.85971 2937 ft 162 kts 273°
2026-04-12 16:06 53.84445 6.84107 2763 ft 163 kts 273°
2026-04-12 16:06 53.84649 6.82216 2575 ft 162 kts 273°
2026-04-12 16:07 53.84853 6.80336 2390 ft 162 kts 273°
2026-04-12 16:07 53.85055 6.78466 2205 ft 161 kts 273°
2026-04-12 16:07 53.85256 6.76618 2023 ft 161 kts 274°
2026-04-12 16:07 53.85460 6.74751 1967 ft 161 kts 275°
2026-04-12 16:08 53.85669 6.72894 1983 ft 161 kts 275°
2026-04-12 16:08 53.85880 6.71018 2002 ft 161 kts 275°
2026-04-12 16:08 53.86086 6.69152 2014 ft 161 kts 275°
2026-04-12 16:08 53.86290 6.67293 2014 ft 161 kts 275°
2026-04-12 16:09 53.86496 6.65422 2020 ft 161 kts 275°
2026-04-12 16:09 53.86701 6.63544 2022 ft 161 kts 274°
2026-04-12 16:09 53.86904 6.61675 2021 ft 161 kts 275°
2026-04-12 16:09 53.87168 6.59823 1981 ft 167 kts 290°
2026-04-12 16:10 53.87869 6.58275 2038 ft 165 kts 304°
2026-04-12 16:10 53.88568 6.56929 2141 ft 135 kts 303°
2026-04-12 16:10 53.89173 6.55919 1946 ft 113 kts 302°
2026-04-12 16:10 53.89772 6.55101 1613 ft 111 kts 316°
2026-04-12 16:11 53.90438 6.54491 1329 ft 110 kts 327°
2026-04-12 16:11 53.91134 6.54002 1074 ft 108 kts 327°
2026-04-12 16:11 53.91757 6.53506 1333 ft 96 kts 328°
2026-04-12 16:11 53.92381 6.52871 1379 ft 110 kts 322°
2026-04-12 16:12 53.93008 6.52088 1417 ft 116 kts 314°
2026-04-12 16:12 53.93635 6.51156 1216 ft 122 kts 313°
2026-04-12 16:12 53.94263 6.50184 854 ft 122 kts 311°
2026-04-12 16:12 53.94810 6.49218 580 ft 109 kts 290°
2026-04-12 16:13 53.95217 6.48271 392 ft 104 kts 321°
2026-04-12 16:13 53.95835 6.48330 347 ft 78 kts 41°
2026-04-12 16:13 53.95816 6.49012 187 ft 57 kts 161°
2026-04-12 16:13 53.95517 6.48940 269 ft 34 kts 179°
2026-04-12 16:14 53.95335 6.48945 229 ft 26 kts 175°
2026-04-12 16:14 53.95231 6.48941 170 ft 13 kts 246°
2026-04-12 16:14 53.95206 6.48858 149 ft 5 kts 258°
2026-04-12 16:14 53.95203 6.48811 134 ft 2 kts 265°
2026-04-12 16:15 53.95203 6.48803 127 ft 0 kts 266°
2026-04-12 16:23 53.95198 6.48885 160 ft 22 kts 355°
2026-04-12 16:24 53.95168 6.49167 168 ft 35 kts 126°
2026-04-12 16:24 53.94958 6.49299 79 ft 22 kts 153°
2026-04-12 16:24 53.94827 6.49369 66 ft 19 kts 159°
2026-04-12 16:24 53.94698 6.49438 66 ft 19 kts 159°
2026-04-12 16:25 53.94568 6.49506 66 ft 19 kts 159°
2026-04-12 16:25 53.94441 6.49573 66 ft 19 kts 159°
2026-04-12 16:25 53.94311 6.49641 67 ft 19 kts 158°
2026-04-12 16:25 53.94180 6.49711 72 ft 20 kts 161°
2026-04-12 16:26 53.93922 6.49881 133 ft 79 kts 153°
2026-04-12 16:26 53.93646 6.50810 394 ft 105 kts 103°
2026-04-12 16:26 53.93530 6.52108 578 ft 115 kts 103°
2026-04-12 16:26 53.93391 6.53546 599 ft 131 kts 101°
2026-04-12 16:27 53.93286 6.55142 571 ft 139 kts 94°
2026-04-12 16:27 53.93350 6.56736 743 ft 133 kts 82°
2026-04-12 16:27 53.93298 6.58277 918 ft 130 kts 101°
2026-04-12 16:27 53.93152 6.59769 1118 ft 127 kts 102°
2026-04-12 16:28 53.92947 6.61222 1314 ft 128 kts 108°
2026-04-12 16:28 53.92701 6.62711 1499 ft 133 kts 108°
2026-04-12 16:28 53.92445 6.64238 1681 ft 136 kts 108°
2026-04-12 16:28 53.92180 6.65788 1859 ft 139 kts 109°
2026-04-12 16:29 53.91907 6.67362 2021 ft 140 kts 109°
2026-04-12 16:29 53.91627 6.68959 2191 ft 142 kts 110°
2026-04-12 16:29 53.91345 6.70573 2349 ft 142 kts 110°
2026-04-12 16:29 53.91060 6.72192 2507 ft 143 kts 110°
2026-04-12 16:30 53.90775 6.73803 2681 ft 143 kts 111°
2026-04-12 16:30 53.90485 6.75424 2836 ft 143 kts 111°
2026-04-12 16:30 53.90199 6.77037 2988 ft 143 kts 110°
2026-04-12 16:30 53.89917 6.78612 3057 ft 140 kts 109°
2026-04-12 16:31 53.89641 6.80189 3067 ft 137 kts 109°
2026-04-12 16:31 53.89371 6.81724 3051 ft 134 kts 108°
2026-04-12 16:31 53.89108 6.83223 3029 ft 132 kts 108°
2026-04-12 16:31 53.88845 6.84710 3014 ft 131 kts 109°
2026-04-12 16:32 53.88584 6.86187 3006 ft 131 kts 109°
2026-04-12 16:32 53.88322 6.87645 3003 ft 130 kts 109°
2026-04-12 16:32 53.88057 6.89115 3004 ft 130 kts 109°
2026-04-12 16:32 53.87793 6.90580 3005 ft 130 kts 109°
2026-04-12 16:33 53.87528 6.92051 3002 ft 130 kts 108°
2026-04-12 16:33 53.87263 6.93525 3007 ft 130 kts 108°
2026-04-12 16:33 53.86999 6.94998 3013 ft 130 kts 109°
2026-04-12 16:33 53.86734 6.96469 3015 ft 130 kts 109°
2026-04-12 16:34 53.86467 6.97942 3013 ft 130 kts 108°
2026-04-12 16:34 53.86204 6.99398 3010 ft 130 kts 108°
2026-04-12 16:34 53.85938 7.00880 3010 ft 130 kts 109°
2026-04-12 16:34 53.85676 7.02330 3012 ft 130 kts 109°
2026-04-12 16:35 53.85408 7.03810 3015 ft 130 kts 109°
2026-04-12 16:35 53.85145 7.05256 3019 ft 130 kts 109°
2026-04-12 16:35 53.84877 7.06728 3022 ft 130 kts 109°
2026-04-12 16:35 53.84610 7.08193 3025 ft 130 kts 109°
2026-04-12 16:36 53.84348 7.09640 3034 ft 130 kts 109°
2026-04-12 16:36 53.84081 7.11112 3039 ft 130 kts 109°
2026-04-12 16:36 53.83815 7.12572 3036 ft 130 kts 109°
2026-04-12 16:36 53.83545 7.14046 3030 ft 130 kts 108°
2026-04-12 16:37 53.83280 7.15506 3025 ft 130 kts 108°
2026-04-12 16:37 53.83013 7.16967 3024 ft 130 kts 108°
2026-04-12 16:37 53.82745 7.18436 3028 ft 130 kts 108°
2026-04-12 16:37 53.82479 7.19889 3030 ft 130 kts 108°
2026-04-12 16:38 53.82212 7.21347 3031 ft 130 kts 108°
2026-04-12 16:38 53.81947 7.22800 3032 ft 130 kts 108°
2026-04-12 16:38 53.81680 7.24260 3031 ft 130 kts 108°
2026-04-12 16:38 53.81413 7.25723 3029 ft 130 kts 108°
2026-04-12 16:39 53.81145 7.27179 3028 ft 130 kts 108°
2026-04-12 16:39 53.80879 7.28629 3029 ft 130 kts 109°
2026-04-12 16:39 53.80613 7.30089 3027 ft 130 kts 109°
2026-04-12 16:39 53.80344 7.31543 3030 ft 129 kts 108°
2026-04-12 16:40 53.80076 7.32996 3029 ft 129 kts 109°
2026-04-12 16:40 53.79804 7.34467 3029 ft 129 kts 108°
2026-04-12 16:40 53.79538 7.35913 3030 ft 129 kts 108°
2026-04-12 16:40 53.79269 7.37364 3032 ft 129 kts 108°
2026-04-12 16:41 53.79001 7.38815 3032 ft 129 kts 108°
2026-04-12 16:41 53.78730 7.40259 3032 ft 129 kts 108°
2026-04-12 16:41 53.78459 7.41717 3033 ft 129 kts 108°
2026-04-12 16:41 53.78186 7.43180 3032 ft 129 kts 108°
2026-04-12 16:42 53.77910 7.44679 2934 ft 145 kts 110°
2026-04-12 16:42 53.77585 7.46374 3022 ft 153 kts 110°
2026-04-12 16:42 53.77261 7.48085 3070 ft 153 kts 108°
2026-04-12 16:43 53.76306 7.53259 2997 ft 157 kts 109°
2026-04-12 16:43 53.75972 7.55051 2979 ft 163 kts 110°
2026-04-12 16:43 53.75625 7.56879 3021 ft 164 kts 109°
2026-04-12 16:44 53.75280 7.58726 3043 ft 164 kts 109°
2026-04-12 16:44 53.74941 7.60553 3051 ft 164 kts 109°
2026-04-12 16:44 53.74591 7.62422 3044 ft 165 kts 108°
2026-04-12 16:44 53.74247 7.64259 3039 ft 165 kts 108°
2026-04-12 16:45 53.73902 7.66103 3027 ft 165 kts 109°
2026-04-12 16:45 53.73556 7.67951 3022 ft 165 kts 109°
2026-04-12 16:45 53.73212 7.69786 2916 ft 164 kts 108°
2026-04-12 16:45 53.72871 7.71624 2737 ft 163 kts 107°
2026-04-12 16:46 53.72528 7.73459 2544 ft 163 kts 108°
2026-04-12 16:46 53.72189 7.75273 2361 ft 162 kts 107°
2026-04-12 16:46 53.71846 7.77098 2171 ft 162 kts 108°
2026-04-12 16:46 53.71504 7.78913 2010 ft 162 kts 108°
2026-04-12 16:47 53.71162 7.80715 1986 ft 162 kts 109°
2026-04-12 16:47 53.70818 7.82518 1999 ft 162 kts 109°
2026-04-12 16:47 53.70472 7.84332 2022 ft 161 kts 109°
2026-04-12 16:47 53.70130 7.86126 2034 ft 161 kts 109°
2026-04-12 16:48 53.69787 7.87937 2035 ft 161 kts 109°
2026-04-12 16:48 53.69447 7.89734 2031 ft 162 kts 109°
2026-04-12 16:48 53.69105 7.91531 2036 ft 161 kts 109°
2026-04-12 16:48 53.68760 7.93347 2035 ft 161 kts 108°
2026-04-12 16:49 53.68427 7.95109 2164 ft 149 kts 107°
2026-04-12 16:49 53.68137 7.96657 2068 ft 128 kts 105°
2026-04-12 16:49 53.67884 7.98036 1977 ft 120 kts 106°
2026-04-12 16:49 53.67632 7.99379 1955 ft 119 kts 108°
2026-04-12 16:50 53.67374 8.00717 1990 ft 120 kts 108°
2026-04-12 16:50 53.67116 8.02056 2023 ft 119 kts 108°
2026-04-12 16:50 53.66862 8.03381 2035 ft 120 kts 108°
2026-04-12 16:50 53.66603 8.04723 2037 ft 120 kts 108°
2026-04-12 16:51 53.66346 8.06072 2038 ft 121 kts 108°
2026-04-12 16:51 53.66000 8.07357 2043 ft 119 kts 117°
2026-04-12 16:51 53.65611 8.08606 2040 ft 119 kts 117°
2026-04-12 16:51 53.65218 8.09843 2030 ft 119 kts 117°
2026-04-12 16:52 53.64872 8.11108 2038 ft 121 kts 102°
2026-04-12 16:52 53.64816 8.12526 2023 ft 122 kts 95°
2026-04-12 16:52 53.64509 8.13848 2007 ft 120 kts 129°
2026-04-12 16:52 53.63863 8.14660 2069 ft 114 kts 141°
2026-04-12 16:53 53.63316 8.15617 2038 ft 116 kts 118°
2026-04-12 16:53 53.62917 8.16815 2004 ft 117 kts 123°
2026-04-12 16:53 53.62238 8.17518 2018 ft 115 kts 165°
2026-04-12 16:53 53.61474 8.17278 2042 ft 116 kts 203°
2026-04-12 16:54 53.60946 8.16242 2074 ft 115 kts 229°
2026-04-12 16:54 53.60474 8.15166 2020 ft 120 kts 238°
2026-04-12 16:54 53.60165 8.13870 2046 ft 117 kts 240°
2026-04-12 16:54 53.59839 8.12609 2041 ft 115 kts 230°
2026-04-12 16:55 53.59198 8.11864 2008 ft 113 kts 200°
2026-04-12 16:55 53.58496 8.11270 1900 ft 114 kts 200°
2026-04-12 16:55 53.57784 8.10663 1759 ft 114 kts 200°
2026-04-12 16:55 53.57079 8.10052 1585 ft 115 kts 200°
2026-04-12 16:56 53.56362 8.09430 1423 ft 114 kts 200°
2026-04-12 16:56 53.55712 8.08861 1356 ft 99 kts 197°
2026-04-12 16:56 53.55082 8.08434 1172 ft 96 kts 193°
2026-04-12 16:56 53.54456 8.08016 957 ft 97 kts 193°
2026-04-12 16:57 53.53822 8.07645 750 ft 97 kts 191°
2026-04-12 16:57 53.53179 8.07277 584 ft 97 kts 191°
2026-04-12 16:57 53.52550 8.06876 472 ft 96 kts 202°
2026-04-12 16:57 53.51934 8.06425 496 ft 94 kts 210°
2026-04-12 16:58 53.51329 8.05987 278 ft 93 kts 191°
2026-04-12 16:58 53.50772 8.05611 75 ft 77 kts 192°
2026-04-12 16:58 53.50421 8.05370 45 ft 34 kts 194°
2026-04-12 16:58 53.50284 8.05206 27 ft 16 kts 257°
2026-04-12 16:59 53.50267 8.05084 23 ft 10 kts 275°
2026-04-12 16:59 53.50276 8.04986 20 ft 4 kts 349°
2026-04-12 16:59 53.50280 8.04976 7 ft 0 kts